Terminal Aerodrome Forecast
Issued by NWS

Home | Current Version | Previous Version | Text Only | Print | Product List | Glossary On
Versions: 1 2 3 4 5 6 7 8 9 10 11 12 13 14 15 16 17 18 19 20 21 22 23 24 25 26 27 28 29 30 31 32 33 34 35 36 37 38 39 40
000
FTPA31 PHFO 300500
TAFLNY
TAF
PHNY 300533Z 3006/3106 22005KT P6SM BKN020
      TEMPO 3006/3010 BKN010
     FM301000 27005KT P6SM VCSH SCT010 BKN020
     FM302000 02010KT P6SM SCT015 BKN035
      AMD NOT SKED=

USA.gov is the U.S. government's official web portal to all federal, state and local government web resources and services.